Time,TemperatureF,DewpointF,PressureIn,WindDirection,WindDirectionDegrees,WindSpeedMPH,WindSpeedGustMPH,Humidity,HourlyPrecipIn,Conditions,Clouds,dailyrainin,SoftwareType,DateUTC
2013-07-20 00:55:00,81.5,77.3,30.07,SE,128,0.0,6.0,87,0.00,,BKN250,0.00,VWS V14.00,2013-07-20 04:55:00,
2013-07-20 01:55:00,81.4,77.2,30.05,SE,135,0.0,9.0,87,0.00,,BKN250,0.00,VWS V14.00,2013-07-20 05:55:00,
2013-07-20 02:55:00,81.1,77.6,30.03,SE,141,0.0,7.0,89,0.00,,BKN250,0.00,VWS V14.00,2013-07-20 06:55:00,
2013-07-20 03:55:00,81.1,77.2,30.01,ESE,109,3.0,7.0,88,0.00,,BKN250,0.00,VWS V14.00,2013-07-20 07:55:00,
2013-07-20 04:55:00,81.2,77.3,30.03,ESE,117,1.0,10.0,88,0.00,,BKN250,0.00,VWS V14.00,2013-07-20 08:55:00,
2013-07-20 05:55:00,81.2,77.3,30.03,East,97,2.0,12.0,88,0.00,,SCT250,0.00,VWS V14.00,2013-07-20 09:55:00,
2013-07-20 06:55:00,81.3,77.1,30.03,ESE,119,0.0,13.0,87,0.00,,SCT250,0.00,VWS V14.00,2013-07-20 10:55:00,
2013-07-20 07:55:00,81.6,77.0,30.03,ESE,111,0.0,10.0,86,0.00,,BKN250,0.00,VWS V14.00,2013-07-20 11:55:00,
2013-07-20 08:55:00,84.0,78.7,30.05,ESE,117,6.0,9.0,84,0.00,,BKN250,0.00,VWS V14.00,2013-07-20 12:55:00,
2013-07-20 09:55:00,84.2,78.1,30.07,ESE,115,3.0,12.0,82,0.00,,BKN250,0.00,VWS V14.00,2013-07-20 13:55:00,
2013-07-20 10:55:00,84.3,76.3,30.09,South,181,1.0,12.0,77,0.00,,BKN250,0.00,VWS V14.00,2013-07-20 14:55:00,
2013-07-20 11:55:00,86.6,78.9,30.07,SW,231,3.0,13.0,78,0.00,,BKN200,0.00,VWS V14.00,2013-07-20 15:55:00,
2013-07-20 12:55:00,85.6,77.6,30.07,SSE,154,0.0,13.0,77,0.00,,BKN200,0.00,VWS V14.00,2013-07-20 16:55:00,
2013-07-20 13:55:00,86.0,78.3,30.06,SSE,157,3.0,16.0,78,0.00,,BKN065,0.00,VWS V14.00,2013-07-20 17:55:00,
2013-07-20 15:55:00,84.1,78.4,30.02,South,169,0.0,12.0,83,0.00,,BKN250,0.00,VWS V14.00,2013-07-20 19:55:00,
2013-07-20 16:55:00,82.9,74.6,30.03,SE,137,0.0,12.0,76,0.00,,BKN200,0.00,VWS V14.00,2013-07-20 20:55:00,
2013-07-20 18:55:00,82.0,76.7,30.02,South,182,0.0,13.0,84,0.00,,OVC180,0.00,VWS V14.00,2013-07-20 22:55:00,
2013-07-20 20:55:00,78.1,74.6,30.03,WNW,288,0.0,5.0,89,0.00,,OVC190,0.00,VWS V14.00,2013-07-21 00:55:00,
2013-07-20 21:55:00,77.3,73.5,30.04,SSW,213,0.0,3.0,88,0.00,,OVC170,0.00,VWS V14.00,2013-07-21 01:55:00,
2013-07-20 22:55:00,77.1,73.9,30.07,SSW,213,1.0,3.0,90,0.00,,BKN160,0.00,VWS V14.00,2013-07-21 02:55:00,
2013-07-20 23:57:00,76.7,74.2,30.07,West,274,0.0,5.0,92,0.00,,BKN210,0.00,VWS V14.00,2013-07-21 03:57:00,